This is the latest recevied weather packets stored in our database for station/object KQ5S-13. If no packets are shown the sender has not sent any weather packets the latest 10 day(s).
| Time | Temp. | Humidity | Pressure | Rain* | Wind** | Luminosity | Snow |
|---|---|---|---|---|---|---|---|
| 1777735816 | 14.44° C | 54% | 1015.7 hPa | 0 mm | - | 324 W/m² | - |
| 1777731016 | 12.78° C | 63% | 1014.8 hPa | 0 mm | - | 160 W/m² | - |
| 1777727416 | 12.78° C | 66% | 1014.6 hPa | 0 mm | - | 458 W/m² | - |
| 1777726816 | 12.22° C | 65% | 1014.5 hPa | 0 mm | - | 230 W/m² | - |
| 1777725616 | 11.67° C | 67% | 1014.5 hPa | 0 mm | - | 143 W/m² | - |
| 1777725016 | 11.67° C | 66% | 1014.4 hPa | 0 mm | - | 93 W/m² | - |
| 1777721416 | 11.11° C | 61% | 1013.9 hPa | 0 mm | - | 30 W/m² | - |
| 1777719016 | 11.67° C | 60% | 1013.7 hPa | 0 mm | - | 0 W/m² | - |
| 1777717815 | 11.67° C | 59% | 1013.8 hPa | 0 mm | - | 0 W/m² | - |
| 1777711818 | 12.22° C | 55% | 1014 hPa | 0 mm | - | 0 W/m² | - |
| 1777711218 | 12.22° C | 54% | 1013.5 hPa | 0 mm | - | 0 W/m² | - |
| 1777709417 | 12.78° C | 54% | 1013.5 hPa | 0 mm | - | 0 W/m² | - |
| 1777699817 | 13.89° C | 56% | 1014.3 hPa | 0 mm | - | 0 W/m² | - |
| 1777696215 | 14.44° C | 68% | 1013.9 hPa | 0 mm | - | 0 W/m² | - |
| 1777695616 | 13.89° C | 73% | 1013.8 hPa | 0 mm | - | 0 W/m² | - |
| 1777695016 | 13.89° C | 76% | 1013.7 hPa | 0 mm | - | 0 W/m² | - |
| 1777693216 | 13.33° C | 79% | 1013.8 hPa | 0 mm | - | 0 W/m² | - |
| 1777691415 | 13.33° C | 85% | 1014.3 hPa | 0 mm | - | 0 W/m² | - |
| 1777690235 | 13.89° C | 84% | 1014.5 hPa | 0 mm | - | 0 W/m² | - |
| 1777686618 | 14.44° C | 82% | 1014 hPa | 0 mm | - | 0 W/m² | - |
| 1777686018 | 14.44° C | 81% | 1013.8 hPa | 0 mm | - | 0 W/m² | - |
| 1777684818 | 15° C | 80% | 1013.7 hPa | 0 mm | - | 0 W/m² | - |
| 1777682418 | 15.56° C | 75% | 1013 hPa | 0 mm | - | 0 W/m² | - |
| 1777680617 | 16.11° C | 70% | 1012.9 hPa | 0 mm | - | 7 W/m² | - |
| 1777680037 | 16.11° C | 68% | 1012.8 hPa | 0 mm | - | 11 W/m² | - |
* Rain latest hour (hover to see other rain measurements)
** Current wind speed in m/s (hover to see current wind gust speed)